Vertical_Velocity
1 1 1 1 1 1 1 1 1 1 1 0 0 0 0 0 0 0 0 0 -0 -0 -0 -0 -0 -0 -0 -1 -1 -2 -2 -2 -3 -3 -3 -3 -2 -2 -2 -2 -2 -2 -3 -3 -3 -3 -3 -3 -2 -2 -2 -2 -2 -3 -3 -3 -2 -2 -1 -1 -0 -0 -0 -0 -1 -2 -3 -4 -3
1 1 1 1 1 1 1 1 1 1 1 0 0 0 1 0 0 -0 -0 0 0 -0 -0 -0 -0 -0 -1 -1 -2 -2 -2 -2 -3 -3 -3 -3 -2 -2 -2 -2 -2 -2 -3 -3 -3 -3 -3 -3 -2 -2 -2 -2 -2 -2 -3 -2 -2 -1 -1 -1 -0 -0 -0 -1 -1 -2 -2 -3 -4
1 1 1 1 1 1 1 1 1 1 0 0 0 1 1 0 -0 -0 -0 0 0 -0 -0 -0 -0 -1 -1 -1 -2 -2 -2 -2 -2 -3 -3 -3 -2 -2 -2 -2 -2 -3 -3 -3 -4 -4 -4 -3 -3 -3 -2 -2 -2 -2 -2 -2 -2 -1 -1 -1 -1 -1 -1 -1 -1 -2 -2 -2 -3
1 1 1 1 1 1 1 1 1 0 0 0 0 1 1 0 -0 -0 -0 0 -0 -0 -0 -1 -1 -1 -1 -1 -1 -2 -2 -1 -2 -3 -3 -3 -2 -2 -1 -2 -2 -3 -3 -3 -4 -4 -4 -4 -4 -4 -3 -3 -3 -3 -3 -2 -2 -1 -1 -1 -1 -1 -1 -1 -2 -2 -2 -2 -2
1 1 1 1 1 1 1 1 0 0 0 0 1 1 1 0 0 -0 -0 -0 -0 -0 -0 -1 -1 -1 -1 -1 -1 -1 -1 -1 -2 -3 -4 -3 -2 -2 -1 -1 -2 -2 -3 -3 -3 -4 -4 -4 -4 -4 -4 -4 -3 -3 -3 -3 -2 -1 -1 -1 -1 -1 -1 -1 -2 -2 -2 -1 -1
1 1 1 1 1 1 1 1 1 0 0 1 1 1 1 0 0 0 -0 -0 -0 -0 -0 -1 -1 -1 -1 -1 -1 -1 -1 -1 -2 -3 -4 -3 -3 -2 -2 -1 -1 -2 -2 -3 -3 -3 -3 -3 -4 -4 -4 -4 -4 -4 -3 -3 -2 -1 -1 -1 -1 -1 -1 -1 -2 -2 -2 -2 -1
1 1 1 1 1 1 1 1 1 0 0 1 1 1 1 0 0 0 0 0 -0 -0 -0 -1 -0 -0 -1 -1 -1 -1 -1 -1 -2 -3 -3 -3 -3 -2 -2 -2 -2 -2 -2 -2 -2 -2 -2 -3 -3 -3 -3 -3 -3 -3 -3 -3 -2 -2 -1 -1 -0 -1 -1 -2 -2 -2 -3 -2 -1
1 1 1 1 1 1 1 1 1 1 1 1 1 1 1 1 0 0 0 0 -0 -0 -0 -1 -0 -0 -1 -1 -1 -1 -1 -1 -2 -2 -3 -4 -3 -2 -2 -2 -2 -2 -2 -2 -2 -2 -2 -2 -2 -2 -3 -3 -3 -3 -3 -3 -2 -2 -1 -1 -1 -1 -1 -2 -2 -2 -2 -2 -1
1 1 1 1 1 1 1 1 1 1 1 1 1 1 1 1 1 1 1 0 0 -0 -0 -1 -1 -1 -0 -1 -1 -1 -1 -1 -1 -2 -3 -4 -3 -3 -2 -2 -2 -2 -2 -2 -2 -2 -2 -2 -2 -2 -3 -3 -3 -3 -3 -3 -2 -2 -2 -1 -1 -2 -2 -2 -2 -2 -2 -2 -1
1 1 1 1 1 1 1 1 1 1 1 1 1 1 1 1 1 1 1 1 0 -0 -0 -0 -1 -0 -0 -0 -0 -0 -1 -1 -1 -2 -3 -3 -3 -3 -2 -2 -2 -2 -2 -2 -2 -2 -2 -2 -2 -2 -3 -3 -3 -3 -3 -2 -2 -2 -2 -2 -2 -2 -1 -1 -1 -1 -1 -2 -2
1 1 1 1 1 1 1 1 1 1 1 1 1 1 1 1 1 1 1 1 0 0 -0 -0 -0 -0 -0 -0 0 -0 -0 -1 -1 -1 -2 -3 -3 -2 -2 -1 -2 -2 -2 -2 -2 -2 -2 -2 -2 -2 -2 -3 -2 -2 -2 -2 -2 -2 -2 -2 -2 -1 -1 -1 -1 -1 -1 -2 -2
1 1 1 1 1 1 1 1 1 1 1 1 1 1 1 1 1 1 1 1 0 0 -0 -0 -0 -0 -0 0 0 0 0 -0 -1 -1 -2 -2 -2 -2 -1 -1 -1 -1 -1 -1 -1 -1 -2 -2 -2 -2 -2 -2 -2 -2 -1 -1 -2 -1 -1 -1 -1 -1 -0 -1 -1 -1 -2 -2 -2
1 1 1 1 1 1 1 1 1 1 1 1 1 1 1 1 1 1 1 1 1 0 0 -0 -0 -0 -0 0 1 1 0 0 -0 -1 -1 -2 -2 -2 -1 -1 -1 -1 -1 -1 -1 -1 -1 -2 -2 -2 -2 -2 -2 -2 -2 -2 -2 -1 -1 -1 -0 -0 -1 -1 -1 -1 -1 -1 -1
1 1 1 1 1 1 1 1 1 1 1 1 1 1 1 1 1 1 1 1 1 1 0 0 -0 -0 -0 0 1 1 1 1 -0 -1 -1 -2 -2 -2 -1 -1 -1 -0 -0 -0 -1 -1 -1 -1 -1 -2 -2 -2 -3 -3 -3 -3 -2 -2 -1 -1 -1 -1 -1 -1 -1 -1 -1 -1 -0
1 1 1 1 1 1 1 1 1 1 1 1 1 1 1 2 2 2 2 1 1 1 0 0 0 0 0 -0 1 1 1 1 1 -0 -1 -2 -2 -2 -1 -1 -1 -0 -0 -0 -0 -1 -1 -1 -1 -1 -2 -2 -3 -3 -3 -3 -3 -3 -3 -2 -2 -1 -1 -1 -1 -0 -0 -0 -0
1 1 1 1 1 1 1 1 1 1 1 1 1 1 1 1 2 2 2 1 1 1 1 0 0 0 0 0 0 1 1 1 1 0 -0 -1 -2 -2 -1 -1 -1 -1 -0 -0 -0 -1 -1 -1 -1 -1 -1 -2 -2 -3 -3 -3 -3 -4 -3 -3 -3 -2 -2 -1 -1 -1 -0 -0 -1
1 1 1 1 1 1 1 1 1 1 1 1 1 1 1 1 2 2 2 2 1 1 1 1 1 0 0 0 0 0 1 1 1 1 -0 -1 -1 -1 -1 -1 -1 -1 -1 -1 -1 -1 -1 -0 -0 -1 -1 -1 -2 -2 -3 -3 -3 -4 -4 -4 -3 -3 -2 -2 -1 -1 -1 -1 -1
1 1 1 1 1 1 1 1 1 1 1 1 1 1 1 1 1 2 2 2 1 1 1 1 1 1 0 0 0 0 0 1 1 1 0 -0 -1 -1 -1 -1 -1 -1 -1 -1 -1 -1 -1 -0 -0 -0 -1 -1 -1 -2 -2 -3 -3 -3 -3 -4 -3 -3 -3 -2 -2 -1 -1 -1 -1
1 1 1 1 1 1 1 1 1 1 1 1 1 1 1 1 1 1 2 1 1 1 1 1 1 1 1 1 0 0 0 0 0 1 0 0 -0 -1 -1 -1 -1 -1 -1 -1 -1 -1 -1 -1 -0 -0 -0 -1 -1 -1 -2 -2 -2 -3 -3 -3 -3 -3 -3 -3 -3 -2 -2 -1 -1
1 1 1 1 1 1 1 1 1 1 1 1 1 1 1 1 1 1 1 1 1 1 1 1 1 1 1 1 1 1 0 0 0 0 0 0 0 -0 -0 -0 -0 -1 -1 -1 -2 -2 -1 -1 -1 -0 -0 -0 -1 -1 -1 -2 -2 -2 -2 -3 -3 -3 -3 -3 -3 -2 -2 -2 -1
1 1 1 1 1 1 1 1 1 1 1 1 1 1 1 1 1 1 1 1 1 1 1 1 1 1 1 1 1 1 0 0 0 0 0 0 0 0 0 0 0 -0 -1 -1 -2 -2 -2 -2 -1 -1 -1 -0 -0 -1 -1 -1 -1 -2 -2 -2 -3 -3 -3 -3 -3 -3 -2 -2 -1
1 1 1 1 1 1 1 1 1 1 1 1 1 1 1 1 1 1 1 1 1 1 1 1 1 1 1 1 1 1 1 0 0 -0 -0 0 0 0 0 0 0 -0 -0 -1 -1 -2 -2 -2 -2 -2 -1 -1 -1 -1 -1 -1 -1 -1 -2 -2 -2 -3 -3 -3 -3 -3 -2 -2 -2
1 1 1 1 1 1 1 1 1 1 1 1 1 1 1 1 1 1 1 1 1 1 1 1 1 1 1 1 1 1 1 1 0 0 -0 -0 -0 0 0 0 0 0 -0 -1 -1 -1 -2 -2 -2 -3 -3 -2 -2 -1 -1 -1 -1 -1 -1 -1 -2 -2 -2 -3 -3 -3 -3 -3 -2
1 1 1 1 1 1 1 1 1 1 1 1 2 2 1 1 1 1 1 1 1 1 1 1 1 1 1 1 1 1 1 1 0 0 -0 -0 -0 -0 -0 -0 -0 -0 -0 -1 -0 -0 -1 -1 -2 -3 -3 -3 -3 -3 -2 -2 -2 -2 -1 -1 -1 -1 -2 -2 -2 -3 -3 -3 -2
1 1 1 1 1 1 1 1 1 1 1 1 2 2 1 1 1 1 1 1 1 1 1 1 1 1 1 1 1 1 1 1 0 0 0 -0 -0 -0 -0 -0 -0 -0 -0 -0 -0 0 0 -0 -1 -2 -2 -3 -3 -4 -4 -4 -3 -3 -2 -2 -2 -1 -1 -2 -2 -2 -2 -2 -2
1 1 1 1 1 1 1 1 1 1 1 1 2 2 1 1 1 1 1 1 1 1 1 1 1 1 1 1 1 1 0 0 0 0 0 -0 -0 -0 -0 -0 -0 0 0 0 0 1 1 0 -0 -1 -1 -2 -3 -3 -4 -4 -4 -4 -4 -4 -3 -3 -2 -2 -2 -2 -2 -2 -2
1 1 1 1 1 1 1 1 1 1 1 1 1 1 1 1 1 1 1 1 1 1 1 1 1 1 1 1 1 1 1 0 0 0 0 -0 -0 -0 -0 -0 -0 0 0 1 1 1 1 1 0 -0 -1 -1 -2 -2 -3 -4 -4 -4 -4 -5 -5 -4 -4 -3 -2 -2 -2 -2 -2
1 1 1 1 1 1 1 1 1 1 1 1 1 1 1 1 1 1 1 1 1 1 1 1 1 1 1 1 1 1 1 1 0 0 0 -0 -0 -0 -0 -0 -0 0 0 0 1 1 1 1 0 -0 -0 -1 -1 -2 -2 -2 -3 -3 -4 -4 -5 -5 -5 -4 -4 -3 -3 -2 -2
1 1 1 1 1 1 1 1 1 1 1 1 1 1 1 1 1 1 1 1 1 1 1 1 1 1 1 1 1 1 1 1 1 0 0 -0 -0 -0 -0 -0 -0 -0 0 0 0 0 0 0 0 -0 -0 -1 -1 -1 -1 -2 -2 -2 -3 -3 -4 -4 -4 -5 -5 -4 -4 -4 -3
2 1 1 1 1 1 1 1 1 1 1 1 1 1 1 1 1 1 1 1 1 1 0 0 0 0 0 0 1 1 1 1 1 1 0 0 -0 -0 -0 -0 -0 -0 -0 0 0 0 0 0 0 -0 -0 -1 -1 -1 -1 -1 -2 -2 -2 -2 -3 -3 -3 -4 -4 -4 -4 -4 -4
2 2 1 2 2 2 1 1 1 1 1 1 1 1 1 1 1 1 1 1 1 1 1 0 0 -0 -0 -0 0 0 1 1 1 1 1 0 0 0 -0 -0 -0 -0 -0 0 0 0 0 0 -0 -0 -0 -0 -1 -1 -1 -1 -1 -1 -1 -2 -2 -2 -2 -3 -3 -4 -4 -4 -4
2 2 2 2 2 2 2 2 2 1 1 1 1 1 1 1 1 1 1 1 1 1 1 1 0 0 -0 -0 -0 -0 -0 0 0 1 1 1 1 0 0 0 0 0 -0 -0 -0 -0 -0 -0 -0 -0 -0 -0 -1 -1 -1 -1 -1 -1 -1 -1 -1 -1 -2 -2 -2 -3 -3 -3 -4
2 2 2 2 2 2 2 2 2 2 2 2 1 1 1 1 1 1 1 1 1 1 1 1 1 1 0 0 0 -0 -0 -0 -0 0 0 1 1 1 0 0 0 0 0 -0 -0 -0 -0 -0 -0 -0 -0 -0 -0 -1 -1 -1 -1 -1 -1 -1 -1 -1 -1 -1 -1 -2 -2 -2 -2
1 1 2 2 2 2 2 2 2 2 2 2 2 2 2 2 1 1 1 1 1 1 1 1 1 1 1 0 0 0 0 -0 -0 0 0 0 0 0 0 1 0 0 0 -0 -0 -0 -0 -0 -0 -0 -0 -0 -0 -0 -0 -0 -0 -0 -0 -0 -0 -0 -1 -1 -1 -1 -1 -1 -1
1 1 1 2 2 2 2 2 2 2 2 2 2 2 2 2 1 1 1 1 1 1 1 1 1 1 1 1 1 1 0 0 0 0 0 -0 -0 0 0 0 0 0 0 0 0 0 0 0 0 0 0 0 0 0 0 0 0 -0 -0 -0 -0 -0 -0 -0 -0 -0 -0 -0 -0
1 1 1 2 2 2 2 2 2 2 2 2 2 2 2 2 1 1 1 1 1 1 1 1 1 1 1 1 1 1 1 0 0 0 0 -0 -0 -0 -0 -0 0 0 0 1 0 0 0 0 1 1 1 1 1 1 1 1 1 0 0 0 0 -0 -0 -0 -0 -0 -0 -0 -0
1 1 1 1 2 2 2 2 2 2 2 1 1 1 1 1 1 1 1 1 1 1 1 1 1 1 1 1 1 1 1 1 0 0 0 0 0 -0 -0 -0 -0 -0 0 0 0 0 0 0 0 1 1 1 1 1 1 1 1 1 1 1 1 1 0 0 0 -0 -0 -0 -0
1 1 1 1 1 1 2 2 2 2 2 1 1 1 1 1 1 1 1 1 1 0 0 1 1 1 1 1 1 1 1 1 0 0 0 0 0 0 0 -0 -0 -0 -0 0 0 0 -0 -0 -0 -0 -0 -0 0 0 0 0 1 1 1 1 1 1 1 1 1 0 0 -0 -0
1 1 1 1 1 1 1 2 2 2 1 1 1 1 1 1 1 1 1 1 1 0 0 1 1 1 1 1 1 1 1 1 0 1 1 1 1 1 1 0 0 0 -0 -0 -0 -0 -0 -0 -1 -1 -1 -1 -1 -0 -0 -0 -0 0 0 0 0 0 0 1 1 0 0 0 -0
1 1 1 1 1 1 1 1 1 1 1 1 1 1 1 1 1 1 1 1 1 0 0 1 1 1 1 1 1 1 1 1 1 1 1 1 1 1 1 1 1 1 0 0 -0 -0 -0 -0 -1 -1 -1 -1 -1 -1 -1 -1 -1 -1 -1 -1 -1 -1 -1 -1 -0 -0 -0 -0 -0
1 1 1 1 1 1 1 1 1 1 1 1 1 1 1 1 1 1 1 1 1 1 1 1 1 1 1 1 1 1 1 1 1 1 1 1 1 1 1 1 1 1 1 1 0 0 -0 -0 -0 -0 -1 -1 -1 -1 -1 -1 -1 -1 -1 -1 -1 -1 -1 -2 -1 -1 -1 -1 -1
Height
3048 3048 3049 3049 3049 3049 3049 3049 3049 3049 3048 3048 3048 3047 3047 3046 3046 3045 3044 3043 3043 3042 3041 3040 3039 3038 3037 3036 3035 3034 3033 3032 3031 3030 3029 3027 3026 3025 3024 3022 3021 3020 3019 3017 3016 3015 3013 3012 3011 3009 3008 3006 3005 3004 3002 3001 3000 2998 2997 2995 2994 2992 2991 2989 2987 2985 2983 2981 2979
3047 3047 3047 3048 3048 3048 3048 3048 3048 3048 3047 3047 3047 3046 3046 3046 3045 3044 3043 3043 3042 3041 3041 3040 3039 3038 3037 3036 3035 3034 3033 3032 3031 3030 3029 3027 3026 3025 3024 3022 3021 3020 3019 3017 3016 3015 3013 3012 3011 3009 3008 3006 3005 3004 3003 3001 3000 2999 2997 2996 2994 2992 2991 2989 2987 2986 2984 2981 2980
3046 3046 3046 3046 3047 3047 3047 3047 3047 3046 3046 3046 3046 3046 3045 3045 3044 3043 3043 3042 3041 3041 3040 3039 3038 3037 3036 3035 3034 3033 3032 3031 3031 3030 3029 3028 3026 3025 3024 3023 3021 3020 3019 3017 3016 3015 3013 3012 3011 3009 3008 3006 3005 3004 3003 3001 3000 2999 2997 2996 2994 2993 2991 2990 2988 2986 2984 2982 2980
3044 3045 3045 3045 3045 3046 3046 3046 3046 3046 3046 3045 3045 3045 3044 3044 3043 3043 3042 3042 3041 3040 3039 3039 3038 3037 3036 3035 3034 3033 3032 3031 3031 3030 3029 3028 3027 3026 3024 3023 3021 3020 3019 3017 3016 3015 3013 3012 3011 3009 3008 3006 3005 3004 3003 3001 3000 2999 2998 2996 2995 2993 2991 2990 2988 2986 2985 2983 2981
3043 3043 3044 3044 3044 3044 3045 3045 3045 3045 3045 3044 3044 3044 3043 3043 3042 3042 3041 3041 3040 3040 3039 3038 3037 3036 3035 3035 3034 3033 3032 3031 3030 3029 3029 3028 3027 3026 3025 3023 3022 3021 3019 3018 3016 3015 3014 3012 3011 3010 3008 3007 3006 3004 3003 3002 3001 2999 2998 2996 2995 2993 2992 2990 2989 2987 2985 2984 2982
3041 3042 3042 3043 3043 3043 3043 3044 3044 3044 3043 3043 3043 3043 3042 3042 3042 3041 3041 3040 3040 3039 3038 3037 3036 3036 3035 3034 3033 3032 3032 3031 3030 3029 3028 3028 3027 3026 3025 3024 3022 3021 3020 3018 3017 3016 3014 3013 3011 3010 3009 3007 3006 3004 3003 3002 3001 2999 2998 2996 2995 2994 2992 2991 2989 2987 2986 2984 2983
3040 3041 3041 3041 3041 3042 3042 3042 3042 3042 3042 3042 3042 3042 3041 3041 3041 3041 3040 3040 3039 3038 3037 3037 3036 3035 3035 3034 3033 3032 3031 3031 3030 3029 3028 3028 3027 3026 3025 3024 3023 3021 3020 3019 3017 3016 3015 3013 3012 3011 3009 3008 3006 3005 3003 3002 3001 2999 2998 2997 2996 2994 2993 2991 2990 2988 2986 2985 2983
3039 3039 3040 3040 3040 3041 3041 3041 3041 3041 3041 3041 3041 3041 3041 3041 3040 3040 3039 3039 3038 3038 3037 3036 3036 3035 3034 3033 3032 3032 3031 3030 3030 3029 3028 3028 3027 3026 3026 3025 3023 3022 3021 3019 3018 3016 3015 3014 3012 3011 3010 3008 3007 3006 3004 3002 3001 3000 2998 2997 2996 2994 2993 2991 2990 2988 2987 2986 2984
3037 3038 3038 3039 3039 3039 3040 3040 3040 3040 3040 3040 3040 3040 3040 3040 3039 3039 3039 3038 3038 3037 3036 3036 3035 3034 3034 3033 3032 3031 3031 3030 3029 3029 3028 3028 3027 3026 3026 3025 3024 3022 3021 3020 3019 3017 3016 3015 3013 3012 3010 3009 3007 3006 3005 3003 3001 3000 2999 2997 2996 2995 2993 2992 2990 2989 2988 2986 2985
3036 3036 3037 3037 3037 3038 3038 3039 3039 3039 3039 3039 3039 3039 3039 3039 3039 3038 3038 3037 3037 3036 3036 3035 3034 3034 3033 3032 3032 3031 3031 3030 3029 3028 3028 3027 3027 3026 3026 3025 3024 3023 3022 3021 3019 3018 3016 3015 3014 3012 3011 3010 3008 3007 3006 3004 3002 3001 2999 2998 2996 2995 2994 2992 2991 2990 2988 2987 2986
3035 3035 3035 3036 3036 3036 3037 3037 3038 3038 3038 3038 3038 3038 3038 3038 3038 3037 3037 3037 3036 3036 3035 3034 3034 3033 3032 3032 3031 3031 3030 3030 3029 3028 3028 3027 3027 3026 3026 3025 3024 3023 3022 3021 3020 3018 3017 3016 3014 3013 3012 3011 3009 3008 3006 3005 3003 3002 3000 2999 2997 2996 2994 2993 2992 2990 2989 2988 2986
3033 3034 3034 3034 3035 3035 3036 3036 3036 3036 3037 3037 3037 3037 3037 3037 3037 3037 3036 3036 3036 3035 3034 3034 3033 3033 3032 3031 3031 3031 3030 3029 3029 3028 3027 3027 3026 3026 3026 3025 3025 3024 3022 3021 3021 3019 3018 3016 3015 3014 3012 3011 3010 3009 3007 3006 3005 3003 3001 3000 2998 2997 2995 2994 2992 2991 2990 2988 2987
3032 3032 3033 3033 3033 3034 3034 3035 3035 3035 3036 3036 3036 3036 3036 3036 3036 3036 3036 3035 3035 3034 3033 3033 3032 3032 3031 3031 3031 3030 3030 3029 3028 3028 3027 3026 3026 3026 3026 3025 3025 3024 3023 3022 3021 3020 3018 3017 3016 3015 3013 3012 3011 3010 3008 3007 3006 3004 3003 3001 3000 2998 2996 2995 2993 2992 2991 2989 2988
3031 3031 3031 3032 3032 3032 3033 3033 3034 3034 3034 3034 3035 3035 3035 3035 3035 3035 3035 3034 3034 3033 3033 3032 3032 3031 3031 3031 3030 3030 3029 3029 3028 3027 3026 3026 3026 3026 3025 3025 3024 3024 3023 3022 3021 3020 3019 3018 3016 3015 3014 3013 3012 3011 3009 3008 3006 3005 3004 3002 3001 2999 2997 2996 2994 2993 2992 2990 2989
3029 3030 3030 3030 3031 3031 3031 3032 3032 3033 3033 3033 3033 3034 3034 3034 3034 3034 3034 3033 3033 3033 3032 3031 3031 3031 3030 3030 3030 3029 3029 3028 3028 3027 3026 3026 3025 3025 3025 3024 3024 3024 3023 3022 3021 3021 3019 3018 3017 3016 3015 3014 3012 3011 3010 3009 3007 3006 3005 3003 3002 3000 2999 2997 2996 2994 2993 2991 2990
3028 3028 3029 3029 3029 3030 3030 3031 3031 3031 3031 3032 3032 3032 3033 3033 3033 3033 3033 3032 3032 3032 3031 3031 3031 3030 3030 3029 3029 3029 3028 3028 3027 3026 3026 3025 3025 3024 3024 3024 3024 3023 3023 3022 3021 3021 3020 3019 3018 3016 3016 3014 3013 3012 3011 3010 3008 3007 3006 3004 3003 3001 3000 2998 2997 2996 2994 2993 2991
3027 3027 3027 3028 3028 3028 3029 3029 3030 3030 3030 3031 3031 3031 3031 3032 3032 3032 3032 3031 3031 3031 3031 3030 3030 3030 3029 3029 3028 3028 3028 3027 3027 3026 3025 3025 3024 3024 3024 3023 3023 3023 3022 3022 3021 3021 3020 3019 3018 3017 3016 3015 3014 3013 3011 3011 3009 3008 3007 3006 3004 3003 3001 3000 2998 2997 2996 2994 2993
3026 3026 3026 3026 3027 3027 3027 3028 3028 3029 3029 3030 3030 3030 3031 3031 3031 3031 3031 3031 3030 3030 3030 3029 3029 3029 3028 3028 3028 3027 3027 3027 3026 3026 3025 3024 3024 3023 3023 3023 3022 3022 3022 3021 3021 3020 3020 3019 3018 3017 3016 3015 3014 3013 3012 3011 3010 3009 3008 3006 3005 3004 3003 3001 3000 2998 2997 2996 2994
3024 3025 3025 3025 3026 3026 3026 3026 3027 3027 3028 3028 3029 3029 3029 3029 3030 3030 3030 3029 3029 3029 3029 3028 3028 3028 3028 3027 3027 3027 3026 3026 3026 3025 3025 3024 3023 3023 3022 3022 3022 3022 3021 3021 3021 3020 3019 3019 3018 3017 3016 3016 3015 3014 3013 3012 3011 3010 3008 3007 3006 3005 3004 3002 3001 3000 2998 2997 2996
3023 3023 3024 3024 3024 3025 3025 3025 3026 3026 3026 3027 3027 3028 3028 3028 3028 3028 3028 3028 3028 3028 3028 3028 3027 3027 3027 3027 3026 3026 3026 3026 3025 3025 3024 3024 3023 3022 3022 3021 3021 3021 3021 3021 3020 3019 3019 3018 3018 3017 3016 3016 3015 3014 3013 3012 3011 3010 3009 3008 3007 3006 3005 3003 3002 3001 3000 2999 2997
3022 3022 3022 3023 3023 3023 3024 3024 3024 3025 3025 3026 3026 3026 3027 3027 3027 3027 3027 3027 3027 3027 3027 3027 3026 3026 3026 3026 3026 3025 3025 3025 3024 3024 3024 3023 3022 3022 3021 3021 3021 3021 3020 3020 3020 3019 3018 3018 3017 3017 3016 3016 3015 3014 3013 3012 3012 3011 3010 3009 3008 3006 3006 3004 3003 3002 3001 3000 2999
3020 3021 3021 3021 3021 3022 3022 3023 3023 3024 3024 3024 3025 3025 3026 3026 3026 3026 3026 3026 3026 3026 3026 3026 3026 3026 3025 3025 3025 3025 3024 3024 3024 3023 3023 3022 3022 3021 3021 3021 3020 3020 3019 3019 3019 3018 3018 3017 3017 3016 3016 3015 3015 3014 3013 3013 3012 3011 3010 3009 3008 3007 3006 3005 3004 3003 3002 3001 3000
3019 3019 3020 3020 3020 3021 3021 3021 3022 3022 3023 3023 3024 3024 3024 3025 3025 3025 3025 3025 3025 3025 3025 3025 3025 3025 3025 3025 3024 3024 3024 3023 3023 3023 3022 3022 3021 3021 3021 3020 3020 3019 3019 3018 3018 3018 3017 3017 3016 3016 3016 3015 3014 3014 3013 3012 3012 3011 3010 3010 3009 3008 3007 3006 3005 3004 3003 3002 3001
3018 3018 3018 3019 3019 3019 3020 3020 3021 3021 3021 3022 3022 3023 3023 3023 3024 3024 3024 3024 3024 3024 3024 3024 3024 3024 3024 3024 3024 3023 3023 3023 3022 3022 3022 3021 3021 3020 3020 3019 3019 3018 3018 3018 3017 3017 3017 3016 3016 3016 3015 3015 3014 3014 3013 3012 3012 3011 3010 3010 3009 3008 3007 3006 3006 3005 3004 3002 3001
3016 3017 3017 3017 3017 3018 3018 3019 3019 3020 3020 3021 3021 3021 3022 3022 3022 3022 3023 3023 3023 3023 3023 3023 3023 3023 3023 3023 3023 3022 3022 3022 3021 3021 3021 3021 3020 3020 3019 3019 3018 3018 3017 3017 3017 3017 3016 3016 3016 3015 3015 3014 3014 3013 3013 3012 3012 3011 3011 3010 3009 3008 3007 3007 3006 3005 3004 3003 3002
3015 3015 3016 3016 3016 3016 3017 3017 3018 3018 3019 3019 3020 3020 3020 3021 3021 3021 3021 3021 3022 3022 3022 3022 3022 3022 3022 3022 3022 3021 3021 3021 3021 3021 3020 3020 3020 3019 3019 3018 3018 3017 3017 3017 3016 3016 3016 3016 3015 3015 3014 3014 3014 3013 3013 3012 3011 3011 3011 3010 3009 3008 3008 3007 3006 3006 3005 3004 3003
3014 3014 3014 3015 3015 3015 3016 3016 3016 3017 3017 3018 3018 3019 3019 3019 3020 3020 3020 3020 3021 3021 3021 3021 3021 3021 3021 3021 3021 3021 3020 3020 3020 3020 3019 3019 3019 3018 3018 3018 3017 3017 3017 3016 3016 3016 3015 3015 3015 3014 3014 3013 3013 3012 3012 3012 3011 3011 3010 3010 3009 3008 3008 3007 3006 3006 3005 3004 3003
3012 3013 3013 3013 3014 3014 3014 3015 3015 3016 3016 3016 3017 3017 3018 3018 3018 3019 3019 3019 3019 3020 3020 3020 3020 3020 3020 3020 3020 3020 3019 3019 3019 3019 3018 3018 3018 3017 3017 3017 3017 3016 3016 3016 3016 3015 3015 3014 3014 3013 3013 3013 3012 3012 3011 3011 3011 3010 3010 3009 3009 3008 3008 3007 3006 3006 3005 3004 3004
3011 3011 3011 3012 3012 3012 3013 3013 3014 3014 3015 3015 3016 3016 3016 3017 3017 3017 3018 3018 3018 3018 3018 3018 3019 3019 3019 3018 3018 3018 3018 3018 3018 3018 3017 3017 3017 3017 3016 3016 3016 3016 3016 3015 3015 3015 3014 3014 3013 3013 3012 3012 3012 3011 3011 3011 3010 3010 3009 3009 3008 3008 3007 3007 3006 3006 3005 3005 3004
3009 3010 3010 3011 3011 3011 3011 3012 3012 3013 3013 3014 3014 3015 3015 3016 3016 3016 3016 3016 3017 3017 3017 3017 3017 3017 3017 3017 3017 3017 3017 3017 3017 3016 3016 3016 3016 3016 3016 3015 3015 3015 3015 3014 3014 3014 3013 3013 3013 3012 3012 3011 3011 3011 3010 3010 3010 3009 3009 3008 3008 3007 3007 3006 3006 3006 3005 3004 3004
3008 3008 3009 3009 3010 3010 3010 3011 3011 3011 3012 3012 3013 3013 3014 3014 3015 3015 3015 3015 3016 3016 3016 3016 3016 3016 3016 3016 3016 3016 3016 3016 3016 3015 3015 3015 3015 3015 3014 3014 3014 3014 3014 3014 3013 3013 3013 3012 3012 3011 3011 3011 3010 3010 3010 3009 3009 3008 3008 3008 3007 3007 3006 3006 3006 3005 3005 3004 3003
3006 3007 3007 3008 3008 3008 3009 3009 3010 3010 3011 3011 3012 3012 3012 3013 3013 3014 3014 3014 3014 3015 3015 3015 3015 3015 3014 3014 3014 3014 3014 3014 3014 3014 3014 3014 3014 3014 3013 3013 3013 3013 3013 3012 3012 3012 3012 3011 3011 3011 3011 3010 3010 3009 3009 3008 3008 3008 3007 3007 3007 3006 3006 3005 3005 3005 3004 3004 3003
3005 3005 3006 3006 3006 3007 3007 3008 3008 3009 3010 3010 3011 3011 3011 3012 3012 3012 3013 3013 3013 3013 3013 3013 3013 3013 3013 3013 3013 3013 3013 3013 3013 3013 3013 3013 3012 3012 3012 3012 3012 3012 3012 3011 3011 3011 3011 3011 3011 3010 3010 3009 3009 3009 3008 3008 3007 3007 3007 3006 3006 3006 3005 3005 3004 3004 3003 3003 3003
3003 3003 3004 3005 3005 3006 3006 3006 3007 3008 3008 3009 3009 3010 3010 3011 3011 3011 3011 3011 3012 3012 3012 3012 3012 3012 3012 3012 3012 3012 3012 3012 3011 3011 3011 3011 3011 3011 3011 3011 3011 3011 3011 3011 3010 3010 3010 3010 3010 3009 3009 3009 3008 3008 3007 3007 3007 3006 3006 3006 3005 3005 3004 3004 3004 3003 3003 3002 3002
3001 3002 3002 3003 3004 3004 3005 3005 3006 3006 3007 3007 3008 3008 3009 3009 3010 3010 3010 3010 3011 3011 3011 3011 3011 3011 3011 3011 3011 3011 3011 3011 3011 3011 3010 3010 3010 3010 3010 3010 3010 3010 3010 3009 3009 3009 3009 3009 3009 3008 3008 3008 3007 3007 3007 3006 3006 3006 3005 3005 3004 3004 3004 3003 3003 3002 3002 3002 3001
3000 3000 3001 3001 3002 3003 3003 3004 3005 3005 3006 3006 3007 3007 3007 3008 3008 3008 3009 3009 3009 3009 3009 3009 3009 3009 3009 3009 3009 3010 3010 3010 3010 3009 3009 3009 3009 3009 3009 3009 3008 3008 3008 3008 3008 3008 3008 3008 3007 3007 3007 3007 3006 3006 3006 3005 3005 3005 3004 3004 3004 3003 3003 3002 3002 3002 3001 3001 3001
2998 2998 2999 3000 3001 3001 3002 3002 3003 3004 3004 3005 3005 3006 3006 3006 3007 3007 3007 3007 3008 3008 3008 3008 3008 3008 3008 3008 3008 3008 3008 3008 3008 3008 3008 3008 3008 3008 3008 3007 3007 3007 3007 3007 3007 3007 3006 3006 3006 3006 3006 3006 3005 3005 3005 3004 3004 3004 3003 3003 3003 3002 3002 3002 3001 3001 3001 3000 3000
2996 2997 2997 2998 2999 3000 3000 3001 3002 3002 3003 3003 3004 3004 3005 3005 3005 3006 3006 3006 3006 3006 3006 3006 3006 3007 3007 3007 3007 3007 3007 3007 3007 3007 3007 3007 3007 3007 3007 3006 3006 3006 3006 3006 3006 3006 3005 3005 3005 3005 3005 3004 3004 3004 3003 3003 3003 3002 3002 3002 3001 3001 3001 3001 3001 3000 3000 3000 2999
2994 2995 2996 2996 2997 2998 2999 3000 3000 3001 3001 3002 3002 3003 3003 3003 3004 3004 3004 3005 3005 3005 3005 3005 3005 3005 3006 3006 3006 3006 3006 3006 3006 3006 3006 3006 3006 3006 3006 3006 3006 3005 3005 3005 3005 3005 3004 3004 3004 3004 3003 3003 3003 3002 3002 3002 3001 3001 3001 3001 3000 3000 3000 3000 3000 2999 2999 2999 2998
2993 2993 2994 2995 2996 2996 2997 2998 2999 2999 3000 3000 3001 3001 3001 3002 3002 3002 3003 3003 3003 3003 3004 3004 3004 3004 3004 3004 3004 3005 3005 3005 3005 3005 3005 3005 3005 3005 3005 3005 3005 3005 3004 3004 3004 3004 3004 3003 3003 3003 3002 3002 3002 3001 3001 3001 3000 3000 3000 2999 2999 2999 2999 2998 2998 2998 2998 2998 2997
2991 2991 2992 2993 2994 2995 2996 2996 2997 2997 2998 2999 2999 3000 3000 3000 3001 3001 3001 3002 3002 3002 3002 3002 3003 3003 3003 3003 3003 3003 3003 3004 3004 3004 3004 3004 3004 3004 3004 3004 3004 3004 3004 3003 3003 3003 3003 3003 3002 3002 3002 3001 3001 3001 3000 3000 3000 2999 2999 2998 2998 2998 2997 2997 2997 2997 2996 2996 2996